Weather History for Beaufort MCAS, SC

Change the Weather History Date:

Saturday, February 16, 2013

  Actual Average Record
Temperature  
Mean Temperature 46 °F -  
Max Temperature 53 °F 64 °F 64 °F (2014)
Min Temperature 37 °F 44 °F 32 °F (2014)
Degree Days  
Heating Degree Days 19    
Moisture  
Dew Point 34 °F    
Average Humidity 69    
Maximum Humidity 89    
Minimum Humidity 32    
Precipitation  
Precipitation 0.01 in - - ()
Sea Level Pressure  
Sea Level Pressure 29.94 in    
Wind  
Wind Speed 7 mph (NW)    
Max Wind Speed 24 mph    
Max Gust Speed 31 mph    
Visibility 10 miles    
Events Rain    
Averages and records for this station are not official NWS values.
T = Trace of Precipitation, MM = Missing Value Source: NWS Daily Summary

Daily Weather History Graph

Daily Weather History Graph

Search for Another Location

Airport:

Trip Planner

Search our weather history database for the weather conditions in past years. The results will help you decide how hot, cold, wet, or windy it might be!

Date:

Astronomy

Feb. 16, 2013 Rise Set
Actual Time 7:04 AM EST 6:09 PM EST
Civil Twilight 6:39 AM EST 6:34 PM EST
Nautical Twilight 6:10 AM EST 7:03 PM EST
Astronomical Twilight 5:42 AM EST 7:32 PM EST
Moon 10:41 AM EST (2/16) No Moon Set
Length of Visible Light 11h 55m
Length of Day
11h 05m
Waxing Crescent, 39% of the Moon is Illuminated
Feb 16
Waxing Crescent
Feb 17
First Quarter
Feb 25
Full
Mar 4
Last Quarter
Mar 11
New

Hourly Weather History & Observations

Time (EST) Temp. Windchill Dew Point Humidity Pressure Visibility Wind Dir Wind Speed Gust Speed Precip Events Conditions
12:56 AM 44.1 °F - 41.0 °F 89% 29.98 in 10.0 mi Calm Calm - N/A   Clear
1:56 AM 43.0 °F - 39.9 °F 89% 29.97 in 10.0 mi Calm Calm - N/A   Clear
2:56 AM 42.1 °F - 39.0 °F 89% 29.95 in 10.0 mi Calm Calm - N/A   Clear
3:56 AM 44.1 °F - 41.0 °F 89% 29.92 in 10.0 mi Calm Calm - N/A   Clear
4:56 AM 43.0 °F 38.8 °F 39.9 °F 89% 29.91 in 10.0 mi NW 6.9 mph - N/A   Clear
5:56 AM 43.0 °F 41.3 °F 39.9 °F 89% 29.91 in 10.0 mi WSW 3.5 mph - N/A   Clear
6:56 AM 43.0 °F - 39.9 °F 89% 29.90 in 10.0 mi Calm Calm - N/A   Clear
7:56 AM 45.0 °F - 41.0 °F 86% 29.89 in 10.0 mi Calm Calm - N/A   Clear
8:56 AM 46.9 °F - 39.9 °F 77% 29.90 in 10.0 mi North 9.2 mph - N/A   Clear
9:56 AM 50.0 °F - 41.0 °F 71% 29.90 in 10.0 mi North 6.9 mph - N/A   Clear
10:56 AM 52.0 °F - 39.0 °F 61% 29.90 in 10.0 mi North 13.8 mph - N/A   Clear
11:56 AM 53.1 °F - 36.0 °F 52% 29.91 in 10.0 mi NNW 20.7 mph 28.8 mph N/A   Overcast
12:53 PM 46.4 °F 38.7 °F 35.6 °F 66% 29.92 in 10.0 mi NW 20.7 mph 29.9 mph N/A   Overcast
12:56 PM 46.0 °F 38.5 °F 35.1 °F 66% 29.93 in 10.0 mi NNW 19.6 mph 29.9 mph N/A   Overcast
1:21 PM 44.6 °F 35.7 °F 35.6 °F 71% 29.93 in 10.0 mi NW 24.2 mph 31.1 mph N/A   Overcast
1:56 PM 42.1 °F 32.8 °F 35.1 °F 76% 29.93 in 10.0 mi NNW 21.9 mph 29.9 mph 0.00 in Rain Light Rain
2:56 PM 42.1 °F 37.7 °F 37.0 °F 82% 29.90 in 10.0 mi North 6.9 mph - 0.01 in   Overcast
3:24 PM 42.8 °F 37.5 °F 37.4 °F 81% 29.91 in 10.0 mi WNW 9.2 mph - N/A   Overcast
3:45 PM 44.6 °F 40.2 °F 37.4 °F 76% 29.90 in 10.0 mi WNW 8.1 mph - N/A   Mostly Cloudy
3:56 PM 43.0 °F 37.7 °F 36.0 °F 76% 29.90 in 10.0 mi WNW 9.2 mph - N/A   Mostly Cloudy
4:07 PM 44.6 °F 38.8 °F 35.6 °F 71% 29.89 in 10.0 mi NW 11.5 mph - N/A   Scattered Clouds
4:56 PM 44.1 °F 40.8 °F 35.1 °F 71% 29.90 in 10.0 mi WNW 5.8 mph - N/A   Partly Cloudy
5:56 PM 44.1 °F 42.5 °F 35.1 °F 71% 29.90 in 10.0 mi West 3.5 mph - N/A   Mostly Cloudy
6:56 PM 46.0 °F 39.6 °F 30.0 °F 54% 29.93 in 10.0 mi West 15.0 mph 21.9 mph N/A   Overcast
7:56 PM 44.1 °F 38.1 °F 18.0 °F 35% 29.96 in 10.0 mi NW 11.5 mph 26.5 mph N/A   Clear
8:56 PM 42.1 °F 34.9 °F 15.1 °F 34% 30.00 in 10.0 mi NW 13.8 mph 21.9 mph N/A   Clear
9:56 PM 41.0 °F 34.3 °F 12.9 °F 32% 30.04 in 10.0 mi NW 11.5 mph 25.3 mph N/A   Clear
10:56 PM 39.0 °F 32.3 °F 15.1 °F 38% 30.07 in 10.0 mi NW 10.4 mph - N/A   Clear
11:56 PM 37.9 °F 30.9 °F 12.9 °F 36% 30.09 in 10.0 mi NW 10.4 mph 19.6 mph N/A   Clear